Iwami current weather conditions

sailwx.info

Wind from 170 at 5 knots

Air temperature 5.0° C
Visibility: greater than 5.4 NM
Dewpoint -0.0° C

Last reported at 2014-Dec-19 10:00 UTC.
Time now 2014-Dec-19 20:16 UTC

Location: N 34°41' E 131°47'.
View on Google Maps.

See reports from other nearby stations

  
Tides and Currents Weather Stations Pressure Air Temp Water Temp Dewpoint Dewpoint Depression Visibility Wind Speed Wind Dir Waves Ship Positions
date/time (UTC)wind fromknots sea level pressurealtimeterstation pressurevisibilityair tempwater tempwave heightnotes
2014-Dec-19 10:00 170 5 5.4 5.0
2014-Dec-19 09:00 160 7 5.4 5.0
2014-Dec-19 08:00 170 6 5.4 6.0
2014-Dec-19 07:00 170 5 5.4 7.0
2014-Dec-19 06:00 140 8 5.4 7.0
2014-Dec-19 05:00 170 9 5.4 8.0
2014-Dec-19 04:00 170 9 5.4 8.0
2014-Dec-19 03:00 170 10 5.4 7.0
2014-Dec-19 02:00 170 11 5.4 7.0
2014-Dec-19 01:00 160 11 5.4 6.0
2014-Dec-19 00:00 160 10 5.4 3.0
2014-Dec-18 23:00 170 8 5.4 2.0
2014-Dec-18 10:00 5.4 4.0 Light snow showers.
2014-Dec-18 09:00 310 7 5.4 3.0
2014-Dec-18 08:00 5.4 3.0
2014-Dec-18 07:00 310 12 5.4 3.0
2014-Dec-18 06:00 310 10 5.4 3.0
2014-Dec-18 05:00 310 11 5.4 3.0
2014-Dec-18 04:00 290 14 5.4 2.0 Light snow showers.
2014-Dec-18 03:00 300 14 5.4 2.0 Light snow showers.
2014-Dec-18 02:00 290 16 5.4 1.0 Light snow showers.
2014-Dec-18 01:00 280 13 4.9 1.0 Light snow showers.
2014-Dec-18 00:00 310 15 2.7 1.0 Light snow showers. Mist.
2014-Dec-17 23:00 290 16 5.4 1.0 Light snow showers.